7 * 24
多渠道服务支持
STARLINK-37262(NORAD编号68508)是SpaceX星链(Starlink)互联网卫星星座中的一颗卫星,星链项目旨在为全球提供高速低延迟的宽带互联网覆盖,尤其服务偏远地区和网络基础设施匮乏区域。该卫星运行在近地轨道,依托SpaceX可重复使用火箭完成部署,延续了星链卫星标准化设计,具备自动脱轨再入大气层能力,可减少太空垃圾。作为星链批量发射组网中的一员,它的入轨进一步扩充了星座服务容量,支撑全球卫星互联网服务的覆盖能力提升。
美国
(US)
| 数据来源 | 国际轨道数据 |
| 星历时间: | 2026-06-10T07:11:37+0800 12小时前 查看轨道信息 |
| 半长轴: | 6840.843km |
| 偏心率: | 0.0001594 |
| 轨道倾角: | 53.160° |
| 近地点辐角 | 104.422° |
| 升交点赤经 | 53.372° |
| 平近点角 | 255.696° |
| 近地点: | 461.615km |
| 远地点: | 463.797km |
| 周期: | 93.848分钟 |
| 每日圈数: | 15.343994 |